Simultaneous Nadir Overpasses (SNOs) Predictions

Prediction of SNOs between METOP-B and NOAA-19 Satellite Orbit:

Table of predicted SNOs for the next 14.0 days since TLE Epoch: 12/26/2015
Index Date (METOP-B) Time (METOP-B) Lat,Lon (METOP-B) SZA (METOP-B ) Date (NOAA-19) Time (NOAA-19) Lat,Lon (NOAA-19) SZA (NOAA-19 ) Distance(km) Time Diff (sec)
1 12/28/2015 15:54:21 -75.92, 121.32 80.89 12/28/2015 15:53:12 -75.94, 119.06 80.85 61.06 69
2 12/28/2015 16:45:08 75.57, -72.45 98.77 12/28/2015 16:44:00 75.56, -72.36 98.76 3.02 68
3 12/28/2015 17:35:50 -75.57, 94.86 81.24 12/28/2015 17:35:06 -75.57, 94.84 81.24 0.75 44
4 12/28/2015 18:26:30 75.55, -97.86 98.74 12/28/2015 18:26:02 75.55, -97.82 98.74 1.31 28
5 12/28/2015 19:17:12 -75.55, 69.46 81.27 12/28/2015 19:17:08 -75.55, 69.38 81.26 2.33 4
6 12/28/2015 20:07:52 75.53,-123.26 98.72 12/28/2015 20:08:04 75.53,-123.28 98.72 0.45 12
7 12/28/2015 20:58:34 -75.53, 44.05 81.29 12/28/2015 20:59:09 -75.49, 44.07 81.33 3.79 35
8 12/28/2015 21:49:14 75.51,-148.67 98.69 12/28/2015 21:50:06 75.52,-148.74 98.70 2.15 52
9 12/28/2015 22:39:57 -75.46, 18.51 81.36 12/28/2015 22:41:11 -75.48, 18.60 81.34 3.55 74
10 01/08/2016 06:08:54 75.62, 86.70 97.86 01/08/2016 06:07:40 75.62, 86.75 97.86 1.35 74
11 01/08/2016 06:59:36 -75.62,-105.97 82.15 01/08/2016 06:58:45 -75.62,-106.02 82.15 1.61 51
12 01/08/2016 07:50:16 75.59, 61.29 97.83 01/08/2016 07:49:42 75.60, 61.29 97.84 0.93 34
13 01/08/2016 08:40:58 -75.60,-131.37 82.18 01/08/2016 08:40:47 -75.60,-131.49 82.17 3.29 11
14 01/08/2016 09:31:38 75.57, 35.89 97.80 01/08/2016 09:31:44 75.59, 35.83 97.81 2.46 6
15 01/08/2016 10:22:20 -75.58,-156.78 82.21 01/08/2016 10:22:48 -75.55,-156.80 82.24 3.36 28
16 01/08/2016 11:13:00 75.55, 10.48 97.77 01/08/2016 11:13:45 75.53, 10.51 97.74 2.59 45
17 01/08/2016 12:03:42 -75.55, 177.81 82.24 01/08/2016 12:04:50 -75.53, 177.73 82.27 3.23 68
18 01/08/2016 12:54:31 75.10, -16.21 97.32 01/08/2016 12:55:38 75.10, -13.64 97.29 73.49 67




NCC Satellite Simultaneous Nadir Overpasses
